Погода Лубны

Погода Лубны : погода сейчас, прогноз погоды и архив. Всё, что Вы хотите узнать о погоде Лубны!

Поиск расширенной информации на нашем сайте:

Другие новости

Новости СМИ2

Главная страница сайта

Новости сайта

03.07.2017

Напоминаем, что на нашем специализированном сайте Метеоцентр.Азия вы можете получить высокодетализированные автоматические прогнозы погоды по пунктам России, СНГ и мира в авиационном формате (включающие направление и скорость ветра, видимость, явления погоды, количество и форму облачности, нижнюю и верхнюю границу облачности).


Погода Лубны - сегодня

Время (UTC), дата Ветер
(°,м/с) 
Видим.   Явления Облачность Т
(°С)
Тd
(°С)
f(%) Тe
(°С)
Pmin
(гПа)
dP
(гПа)
Po
(мм)
O2
(г/м3)
Тmin Tmax R s Состояние
почвы
06 19.09.17 300 (СЗ) 10 км    6/0 верхняя 
[Ci fib]
+13.7 +6.2 60 +14  1019.1  750  287  +10.1         
09 19.09.17 300 (СЗ) 10 км    6/0 верхняя 
[Ci fib]
+18 +4.3 40 +19  1019.6  0.7  751  283           
15 19.09.17 300 (СЗ) 10 км    6/0 верхняя 
[Ci fib]
+20.3 +7.5 44 +20  1018.1  -0.5  750  280           
18 19.09.17 340 (С) 10 км    6/0 верхняя 
[Ci fib]
+15.4 +7.3 58 +17  1018.5  0.1  750  285    +21       
21 19.09.17 360 (С) 10 км    10/0 средняя 
[Ac und]
+13.5 +7.8 68 +15  1019.5  0.9  750  287           
00 20.09.17 360 (С) 10 км    3/0 средняя 
[Ac trans]
+11.3 +7.6 78 +12  1018.8  -0.9  750  289           
03 20.09.17 030 (СВ) 10 км    8/0 средняя 
[Ac As]
+12.7 +8.9 78 +13  1017.8  -0.8  749  287           
06 20.09.17 030 (СВ) 10 км    6/0 средняя, верхняя 
[Ac trans|Ci fib]
+14.8 +5.8 55 +15  1017.7  749  285  +11.2         
09 20.09.17 060 (СВ) 10 км    1/0 средняя 
[Ac trans]
+21.8 +5.1 34 +22  1015.6  -1.6  748  278           
12 20.09.17 060 (СВ) 10 км    6/0 средняя 
[Ac trans]
+26.2 +8.3 32 +26  1013.5  -1.8  747  273           
15 20.09.17 060 (СВ) 10 км    6/4 600 м кучево-дожд., средняя 
[Cb calv|Ac trans]
+26.1 +8.1 32 +26  1012.2  -1.3  746  273           
18 20.09.17 030 (СВ) 10 км    ясно 
+22.3 +6.5 36 +22  1011.9  -0.5  745  277    +26.5       
21 20.09.17 040 (СВ) 10 км    ясно 
+19.7 +6.9 43 +21  1012.2  0.1  745  279           
00 21.09.17 050 (СВ) 10 км    ясно 
+18.1 +6.7 47 +19  1012.1  -0.2  745  281           
03 21.09.17 060 (СВ) 10 км    8/0 средняя 
[Ac trans]
+17.4 +7.8 53 +18  1012  -0.1  745  281           
06 21.09.17 060 (СВ) 10 км    3/0 средняя 
[Ac trans]
+18.7 +9.5 55 +20  1011.5  -0.4  745  279  +17.1         
09 21.09.17 090 (В) 10 км    3/0 средняя 
[Ac trans]
+26 +9.8 36 +27  1010.9  -0.2  745  272           
12 21.09.17 090 (В) 10 км    1/0 средняя 
[Ac trans]
+31.2 +11.6 30 +35  1009  -1.5  744  267           
15 21.09.17 080 (В) 10 км    1/0 средняя 
[Ac trans]
+30.4 +7.3 24 +30  1008.9  -0.2  743  268           
18 21.09.17 080 (В) 10 км    ясно 
+25.7 +10.3 38 +27  1010.4  1.2  744  272    +31.3       
21 21.09.17 060 (СВ) 10 км    ясно 
+23.4 +12 49 +27  1011.8  1.3  745  274           
00 22.09.17 060 (СВ) 10 км    3/0 средняя 
[Ac trans]
+21.1 +10.7 51 +23  1012.1  0.1  745  277           
03 22.09.17 040 (СВ) 10 км    4/4 1000 м 
[Sc]
+19.3 +11.7 61 +24  1012.7  0.5  746  278           
06 22.09.17 020 (С) 10 км    ясно 
+20.1 +10.8 55 +22  1012.8  0.1  746  278  +18.7         
09 22.09.17 060 (СВ) 10 км    3/0 верхняя 
[Ci fib]
+26.3 +7.9 31 +26  1011.8  -0.6  745  273           
Время (UTC), дата Ветер
(°,м/с) 
Видим.   Явления Облачность Т
(°С)
Тd
(°С)
f(%) Тe
(°С)
Pmin
(гПа)
dP
(гПа)
Po
(мм)
O2
(г/м3)
Тmin Tmax R s Состояние
почвы

Для получения пояснительной информации подведите курсор к названию столбца.

ПОГОДА Лубны - архив

Всё, что Вы хотите узнать о погоде Лубны - удобно и подробно!

Выберите нужную дату (начиная с 1 января 2015* года) и нажмите кнопку "Найти".
Будут отображены архивные сводки погоды по пункту Лубны, начиная с указанной даты.


Отображать данные в формате CSV (для использования в таблицах Excel)


Внимание! Наш архив погоды предназначен исключительно для личного некоммерческого использования в познавательных целях. Если Вам необходимы официальные справки о состоянии погоды (для производственных, юридических, коммерческих и т.п. целей), обращайтесь в органы Росгидромета.

*Примечание: данная дата относится к архиву по метеостанциям СССР (Россия, СНГ, Балтия).
Архив по метеостанциям Зарубежной Европы и Азии (кроме Китая) хранится 10 дней, по другим регионам земного шара (Китай, Африка, Америка, Австралия, Океания) - 1 день.

Лубны - район местоположения метеостанции


Название, широта, долгота, высота метеостанции:
Лубны 50°ш. 33°д. 158 м над ур. моря [Украина]

Дополнительная информация

В oтличие oт бoльшинства пoгoдных сайтoв мы публикуем пoдрoбную метеoинфoрмацию в детальнoм прoфессиoнальнoм фoрмате.

Характеристики температуры и влажнoсти вoздуха измеряются на высoте 2 м в тени вдали oт зданий и деревьев.
Скoрoсть ветра измеряется на высoте 10 м (на урoвне рoста челoвека скoрoсть ветра ниже в 1.5-2 раза). Если метеoстанция нахoдится в гoрoде или в лесу, тo скoрoсть ветра занижена на 2-4 м/с пo сравнению с oткрытым местoм. Скoрoсть ветра над акватoриями крупных рек и oзёр, а также на вершинах хoлмoв на 2-5 м/с выше, чем в oбычных услoвиях.
Атмoсфернoе давление в разных тoчках местнoсти мoжет значительнo oтличаться oт давления на метеoстанции, в зависимoсти oт услoвий рельефа (при пoдъёме на 10 м давление пoнижается примернo на 1 мм рт.ст.).